Home   Weather   Cardiff   Past weeks
Flag for United Kingdom

Past Weather in Cardiff, Wales, United Kingdom — Yesterday and Last 2 Weeks

Now
52 °F

Cool.


Feels Like: 49 °F
Forecast: 65 / 49 °F
Wind: 7 mph from Northwest

Location: Wales Airport

Current Time: May 24, 2019 at 8:15:04 am

Latest Report: May 24, 2019 at 7:20 am


Visibility: N/A

Pressure: 30.09 "Hg

Humidity: 94%

Dew Point: 50 °F

Location of CardiffLocation

Past Weather in Cardiff — Graph

°F

Cardiff Temperature Yesterday

Maximum temperature yesterday: 64 °F (at 1:50 pm)
Minimum temperature yesterday: 45 °F (at 4:50 am)
Average temperature yesterday: 55 °F

High & Low Weather Summary for the Past Weeks

 TemperatureHumidityPressure
High66 °F (May 14, 2:50 pm)100% (May 9, 6:20 am)30.69 "Hg (May 9, 6:20 am)
Low41 °F (May 12, 3:50 am)32% (May 13, 4:50 pm)29.36 "Hg (May 9, 6:20 am)
Average54 °F70%30.09 "Hg
* Reported May 9 6:20 am — May 24 6:50 am, Cardiff. Weather by CustomWeather, © 2019

Note: Actual official high and low records may vary slightly from our data, if they occured in-between our weather recording intervals... More about our weather records

Advertising

Cardiff Weather History for the Previous 24 Hours

Scroll right to see more
 ConditionsComfort  
Time TempWeatherWind HumidityBarometerVisibility
6:50 am
Fri, May 24
50 °FCool.7 mph94%30.07 "HgN/A
6:20 am48 °FCool.9 mph100%30.07 "HgN/A
5:50 am46 °FCool.9 mph100%30.07 "HgN/A
5:20 am46 °FCool.8 mph93%30.07 "HgN/A
4:50 am46 °FCool.8 mph100%30.07 "HgN/A
4:20 am48 °FCool.8 mph94%30.07 "HgN/A
3:50 am46 °FCool.9 mph100%30.07 "HgN/A
3:20 am48 °FPassing clouds.9 mph94%30.07 "HgN/A
2:50 am48 °FCool.9 mph94%30.07 "HgN/A
2:20 am48 °FCool.7 mph94%30.07 "HgN/A
1:50 am50 °FCool.6 mph88%30.07 "HgN/A
1:20 am50 °FCool.7 mph88%30.07 "HgN/A
12:50 am50 °FCool.8 mph88%30.07 "HgN/A
12:20 am52 °FCool.8 mph82%30.04 "HgN/A
11:50 pm
Thu, May 23
54 °FCool.8 mph82%30.04 "HgN/A
11:20 pm54 °FCool.7 mph82%30.04 "HgN/A
10:50 pm54 °FCool.9 mph82%30.04 "HgN/A
10:20 pm54 °FCool.12 mph82%30.04 "HgN/A
9:50 pm55 °FCool.12 mph77%30.04 "HgN/A
9:20 pm55 °FCool.14 mph77%30.04 "HgN/A
8:50 pm55 °FCool.14 mph77%30.04 "HgN/A
8:20 pm55 °FCool.12 mph82%30.01 "HgN/A
7:50 pm55 °FCool.13 mph82%30.01 "HgN/A
7:20 pm55 °FCool.15 mph82%30.01 "HgN/A
6:50 pm57 °FCool.16 mph77%30.01 "HgN/A
6:20 pm57 °FCool.17 mph77%30.01 "HgN/A
5:50 pm59 °FCool.16 mph68%30.01 "HgN/A
5:20 pm59 °FCool.15 mph68%30.01 "HgN/A
4:50 pm61 °FCool.14 mph68%30.01 "HgN/A
4:20 pm61 °FCool.14 mph68%30.01 "HgN/A
3:50 pm63 °FMild.13 mph56%30.01 "HgN/A
3:20 pm63 °FMild.12 mph59%30.01 "HgN/A
2:50 pm64 °FMild.13 mph56%30.01 "HgN/A
2:20 pm61 °FCool.12 mph63%30.01 "HgN/A
1:50 pm64 °FMild.12 mph52%30.01 "HgN/A
12:50 pm63 °FMild.8 mph64%30.01 "HgN/A
12:20 pm63 °FMild.5 mph49%30.01 "HgN/A
11:50 am63 °FMild.3 mph45%30.04 "HgN/A
11:20 am63 °FMild.6 mph52%30.04 "HgN/A
10:50 am61 °FRefreshingly cool.5 mph59%30.04 "HgN/A
10:20 am59 °FPassing clouds.3 mph72%30.04 "HgN/A
9:50 am57 °FScattered clouds.5 mph82%30.04 "HgN/A
9:20 am55 °FScattered clouds.5 mph88%30.04 "HgN/A
8:50 am55 °FPassing clouds.5 mph82%30.04 "HgN/A
8:20 am55 °FPassing clouds.7 mph82%30.04 "HgN/A
Weather by CustomWeather, © 2019

See weather overview